
Distance (Route):
Temperature : -52.6°C
Humidity : 58.5%
Pressure : 0hPa| Receiver | Frames | First received | Last received |
|---|---|---|---|
| LY3OO-11 | 262 | 2026-08-31 11:33:28 | 2026-08-31 13:13:56 |
| Receiver | Date | Latitude | Longitude | Direction | Speed | Altitude | Climb | Temperature | Humidity | Pressure | Voltage | Killtimer | Uptime | BKT | XDATA |
|---|---|---|---|---|---|---|---|---|---|---|---|---|---|---|---|
| LY3OO-11 | 2026-08-31 13:13:56 | 54.69081 | 31.91639 | 0° | 0km/h | 998m | 0.0m/s | -52.6°C | 58.5% | 0hPa | 0V | 00:00:00 | 00:00:00 | 00:00:00 | |
| LY3OO-11 | 2026-08-31 13:13:35 | 54.69081 | 31.91639 | 0° | 0km/h | 998m | 0.0m/s | -56.3°C | 53.1% | 0hPa | 0V | 00:00:00 | 00:00:00 | 00:00:00 | |
| LY3OO-11 | 2026-08-31 13:13:13 | 54.69081 | 31.91639 | 0° | 0km/h | 998m | 0.0m/s | -58.6°C | 36.7% | 0hPa | 0V | 00:00:00 | 00:00:00 | 00:00:00 | |
| LY3OO-11 | 2026-08-31 13:12:41 | 54.69081 | 31.91639 | 0° | 0km/h | 998m | 0.0m/s | -55.8°C | 8.3% | 0hPa | 0V | 00:00:00 | 00:00:00 | 00:00:00 | |
| LY3OO-11 | 2026-08-31 13:12:20 | 54.69081 | 31.91639 | 0° | 0km/h | 998m | 0.0m/s | -51.5°C | 5.1% | 0hPa | 0V | 00:00:00 | 00:00:00 | 00:00:00 | |
| LY3OO-11 | 2026-08-31 13:11:59 | 54.69081 | 31.91639 | 0° | 0km/h | 998m | 0.0m/s | -52.9°C | 5.0% | 0hPa | 0V | 00:00:00 | 00:00:00 | 00:00:00 | |
| LY3OO-11 | 2026-08-31 13:11:39 | 54.69081 | 31.91639 | 0° | 0km/h | 998m | 0.0m/s | -52.7°C | 4.6% | 0hPa | 0V | 00:00:00 | 00:00:00 | 00:00:00 | |
| LY3OO-11 | 2026-08-31 13:11:17 | 54.69081 | 31.91639 | 0° | 0km/h | 998m | 0.0m/s | -51.0°C | 4.0% | 0hPa | 0V | 00:00:00 | 00:00:00 | 00:00:00 | |
| LY3OO-11 | 2026-08-31 13:10:50 | 54.69081 | 31.91639 | 0° | 0km/h | 998m | 0.0m/s | -50.8°C | 3.8% | 0hPa | 0V | 00:00:00 | 00:00:00 | 00:00:00 | |
| LY3OO-11 | 2026-08-31 13:10:29 | 54.69081 | 31.91639 | 0° | 0km/h | 998m | 0.0m/s | -51.7°C | 3.8% | 0hPa | 0V | 00:00:00 | 00:00:00 | 00:00:00 | |
| LY3OO-11 | 2026-08-31 13:10:09 | 54.69081 | 31.91639 | 0° | 0km/h | 998m | 0.0m/s | -52.0°C | 3.9% | 0hPa | 0V | 00:00:00 | 00:00:00 | 00:00:00 | |
| LY3OO-11 | 2026-08-31 13:09:48 | 54.69081 | 31.91639 | 0° | 0km/h | 998m | 0.0m/s | -50.2°C | 3.4% | 0hPa | 0V | 00:00:00 | 00:00:00 | 00:00:00 | |
| LY3OO-11 | 2026-08-31 13:09:27 | 54.69081 | 31.91639 | 0° | 0km/h | 998m | 0.0m/s | -51.6°C | 3.6% | 0hPa | 0V | 00:00:00 | 00:00:00 | 00:00:00 | |
| LY3OO-11 | 2026-08-31 13:09:07 | 54.69081 | 31.91639 | 0° | 0km/h | 998m | 0.0m/s | -51.9°C | 3.6% | 0hPa | 0V | 00:00:00 | 00:00:00 | 00:00:00 | |
| LY3OO-11 | 2026-08-31 13:08:46 | 54.69081 | 31.91639 | 0° | 0km/h | 998m | 0.0m/s | -53.1°C | 4.0% | 0hPa | 0V | 00:00:00 | 00:00:00 | 00:00:00 | |
| LY3OO-11 | 2026-08-31 13:08:26 | 54.69081 | 31.91639 | 0° | 0km/h | 998m | 0.0m/s | -52.7°C | 3.9% | 0hPa | 0V | 00:00:00 | 00:00:00 | 00:00:00 | |
| LY3OO-11 | 2026-08-31 13:07:48 | 54.69081 | 31.91639 | 0° | 0km/h | 998m | 0.0m/s | -52.2°C | 3.8% | 0hPa | 0V | 00:00:00 | 00:00:00 | 00:00:00 | |
| LY3OO-11 | 2026-08-31 13:07:26 | 54.69081 | 31.91639 | 0° | 0km/h | 998m | 0.0m/s | -52.5°C | 3.8% | 0hPa | 0V | 00:00:00 | 00:00:00 | 00:00:00 | |
| LY3OO-11 | 2026-08-31 13:06:31 | 54.69081 | 31.91639 | 0° | 0km/h | 998m | 0.0m/s | -52.1°C | 4.0% | 0hPa | 0V | 00:00:00 | 00:00:00 | 00:00:00 | |
| LY3OO-11 | 2026-08-31 13:06:11 | 54.69081 | 31.91639 | 0° | 0km/h | 998m | 0.0m/s | -51.3°C | 3.7% | 0hPa | 0V | 00:00:00 | 00:00:00 | 00:00:00 | |
| LY3OO-11 | 2026-08-31 13:05:51 | 54.69081 | 31.91639 | 0° | 0km/h | 998m | 0.0m/s | -51.6°C | 4.0% | 0hPa | 0V | 00:00:00 | 00:00:00 | 00:00:00 | |
| LY3OO-11 | 2026-08-31 13:05:30 | 54.69081 | 31.91639 | 0° | 0km/h | 998m | 0.0m/s | -50.3°C | 4.1% | 0hPa | 0V | 00:00:00 | 00:00:00 | 00:00:00 | |
| LY3OO-11 | 2026-08-31 13:05:10 | 54.69081 | 31.91639 | 0° | 0km/h | 998m | 0.0m/s | -47.1°C | 3.4% | 0hPa | 0V | 00:00:00 | 00:00:00 | 00:00:00 | |
| LY3OO-11 | 2026-08-31 13:04:49 | 54.69081 | 31.91639 | 0° | 0km/h | 998m | 0.0m/s | -44.8°C | 3.0% | 0hPa | 0V | 00:00:00 | 00:00:00 | 00:00:00 | |
| LY3OO-11 | 2026-08-31 13:04:29 | 54.69081 | 31.91639 | 0° | 0km/h | 998m | 0.0m/s | -43.6°C | 3.1% | 0hPa | 0V | 00:00:00 | 00:00:00 | 00:00:00 | |
| LY3OO-11 | 2026-08-31 13:03:06 | 54.69081 | 31.91639 | 0° | 0km/h | 998m | 0.0m/s | -33.5°C | 1.9% | 0hPa | 0V | 00:00:00 | 00:00:00 | 00:00:00 | |
| LY3OO-11 | 2026-08-31 13:02:45 | 54.69081 | 31.91639 | 0° | 0km/h | 998m | 0.0m/s | -33.3°C | 1.9% | 0hPa | 0V | 00:00:00 | 00:00:00 | 00:00:00 | |
| LY3OO-11 | 2026-08-31 13:02:24 | 54.69081 | 31.91639 | 0° | 0km/h | 998m | 0.0m/s | -33.6°C | 1.9% | 0hPa | 0V | 00:00:00 | 00:00:00 | 00:00:00 | |
| LY3OO-11 | 2026-08-31 13:02:03 | 54.69081 | 31.91639 | 0° | 0km/h | 998m | 0.0m/s | -34.7°C | 2.0% | 0hPa | 0V | 00:00:00 | 00:00:00 | 00:00:00 | |
| LY3OO-11 | 2026-08-31 13:01:42 | 54.69081 | 31.91639 | 0° | 0km/h | 998m | 0.0m/s | -35.3°C | 2.0% | 0hPa | 0V | 00:00:00 | 00:00:00 | 00:00:00 | |
| LY3OO-11 | 2026-08-31 13:01:20 | 54.69081 | 31.91639 | 0° | 0km/h | 998m | 0.0m/s | -36.0°C | 2.1% | 0hPa | 0V | 00:00:00 | 00:00:00 | 00:00:00 | |
| LY3OO-11 | 2026-08-31 13:01:00 | 54.69081 | 31.91639 | 0° | 0km/h | 998m | 0.0m/s | -36.1°C | 2.0% | 0hPa | 0V | 00:00:00 | 00:00:00 | 00:00:00 | |
| LY3OO-11 | 2026-08-31 13:00:37 | 54.69081 | 31.91639 | 0° | 0km/h | 998m | 0.0m/s | -37.1°C | 2.1% | 0hPa | 0V | 00:00:00 | 00:00:00 | 00:00:00 | |
| LY3OO-11 | 2026-08-31 13:00:09 | 54.69081 | 31.91639 | 0° | 0km/h | 998m | 0.0m/s | -38.3°C | 2.3% | 0hPa | 0V | 00:00:00 | 00:00:00 | 00:00:00 | |
| LY3OO-11 | 2026-08-31 12:59:47 | 54.69081 | 31.91639 | 0° | 0km/h | 998m | 0.0m/s | -38.7°C | 2.3% | 0hPa | 0V | 00:00:00 | 00:00:00 | 00:00:00 | |
| LY3OO-11 | 2026-08-31 12:59:18 | 54.69081 | 31.91639 | 0° | 0km/h | 998m | 0.0m/s | -39.1°C | 2.4% | 0hPa | 0V | 00:00:00 | 00:00:00 | 00:00:00 | |
| LY3OO-11 | 2026-08-31 12:58:56 | 54.69081 | 31.91639 | 0° | 0km/h | 998m | 0.0m/s | -39.6°C | 2.4% | 0hPa | 0V | 00:00:00 | 00:00:00 | 00:00:00 | |
| LY3OO-11 | 2026-08-31 12:58:32 | 54.69081 | 31.91639 | 0° | 0km/h | 998m | 0.0m/s | -39.5°C | 2.4% | 0hPa | 0V | 00:00:00 | 00:00:00 | 00:00:00 | |
| LY3OO-11 | 2026-08-31 12:58:10 | 54.69081 | 31.91639 | 0° | 0km/h | 998m | 0.0m/s | -39.8°C | 2.3% | 0hPa | 0V | 00:00:00 | 00:00:00 | 00:00:00 | |
| LY3OO-11 | 2026-08-31 12:57:45 | 54.69081 | 31.91639 | 0° | 0km/h | 998m | 0.0m/s | -40.9°C | 2.5% | 0hPa | 0V | 00:00:00 | 00:00:00 | 00:00:00 | |
| LY3OO-11 | 2026-08-31 12:57:22 | 54.69081 | 31.91639 | 0° | 0km/h | 998m | 0.0m/s | -41.3°C | 2.6% | 0hPa | 0V | 00:00:00 | 00:00:00 | 00:00:00 | |
| LY3OO-11 | 2026-08-31 12:57:02 | 54.69081 | 31.91639 | 0° | 0km/h | 998m | 0.0m/s | -41.3°C | 2.6% | 0hPa | 0V | 00:00:00 | 00:00:00 | 00:00:00 | |
| LY3OO-11 | 2026-08-31 12:56:40 | 54.69081 | 31.91639 | 0° | 0km/h | 998m | 0.0m/s | -41.8°C | 2.7% | 0hPa | 0V | 00:00:00 | 00:00:00 | 00:00:00 | |
| LY3OO-11 | 2026-08-31 12:56:19 | 54.69081 | 31.91639 | 0° | 0km/h | 998m | 0.0m/s | -42.0°C | 2.7% | 0hPa | 0V | 00:00:00 | 00:00:00 | 00:00:00 | |
| LY3OO-11 | 2026-08-31 12:55:46 | 54.69081 | 31.91639 | 0° | 0km/h | 998m | 0.0m/s | -43.4°C | 2.7% | 0hPa | 0V | 00:00:00 | 00:00:00 | 00:00:00 | |
| LY3OO-11 | 2026-08-31 12:55:24 | 54.69081 | 31.91639 | 0° | 0km/h | 998m | 0.0m/s | -44.2°C | 2.9% | 0hPa | 0V | 00:00:00 | 00:00:00 | 00:00:00 | |
| LY3OO-11 | 2026-08-31 12:55:04 | 54.69081 | 31.91639 | 0° | 0km/h | 998m | 0.0m/s | -43.7°C | 2.9% | 0hPa | 0V | 00:00:00 | 00:00:00 | 00:00:00 | |
| LY3OO-11 | 2026-08-31 12:54:43 | 54.69081 | 31.91639 | 0° | 0km/h | 998m | 0.0m/s | -44.0°C | 2.8% | 0hPa | 0V | 00:00:00 | 00:00:00 | 00:00:00 | |
| LY3OO-11 | 2026-08-31 12:54:22 | 54.69081 | 31.91639 | 0° | 0km/h | 998m | 0.0m/s | -44.1°C | 2.8% | 0hPa | 0V | 00:00:00 | 00:00:00 | 00:00:00 | |
| LY3OO-11 | 2026-08-31 12:54:01 | 54.69081 | 31.91639 | 0° | 0km/h | 998m | 0.0m/s | -44.3°C | 2.8% | 0hPa | 0V | 00:00:00 | 00:00:00 | 00:00:00 | |
| LY3OO-11 | 2026-08-31 12:53:40 | 54.69081 | 31.91639 | 0° | 0km/h | 998m | 0.0m/s | -45.0°C | 2.9% | 0hPa | 0V | 00:00:00 | 00:00:00 | 00:00:00 | |
| LY3OO-11 | 2026-08-31 12:53:20 | 54.69081 | 31.91639 | 0° | 0km/h | 998m | 0.0m/s | -45.7°C | 3.0% | 0hPa | 0V | 00:00:00 | 00:00:00 | 00:00:00 | |
| LY3OO-11 | 2026-08-31 12:53:01 | 54.69081 | 31.91639 | 0° | 0km/h | 998m | 0.0m/s | -46.0°C | 3.1% | 0hPa | 0V | 00:00:00 | 00:00:00 | 00:00:00 | |
| LY3OO-11 | 2026-08-31 12:52:39 | 54.69081 | 31.91639 | 0° | 0km/h | 998m | 0.0m/s | -45.8°C | 3.0% | 0hPa | 0V | 00:00:00 | 00:00:00 | 00:00:00 | |
| LY3OO-11 | 2026-08-31 12:52:19 | 54.69081 | 31.91639 | 0° | 0km/h | 998m | 0.0m/s | -46.5°C | 3.2% | 0hPa | 0V | 00:00:00 | 00:00:00 | 00:00:00 | |
| LY3OO-11 | 2026-08-31 12:51:59 | 54.69081 | 31.91639 | 0° | 0km/h | 998m | 0.0m/s | -46.2°C | 3.2% | 0hPa | 0V | 00:00:00 | 00:00:00 | 00:00:00 | |
| LY3OO-11 | 2026-08-31 12:51:38 | 54.69081 | 31.91639 | 0° | 0km/h | 998m | 0.0m/s | -45.7°C | 3.1% | 0hPa | 0V | 00:00:00 | 00:00:00 | 00:00:00 | |
| LY3OO-11 | 2026-08-31 12:51:15 | 54.69081 | 31.91639 | 0° | 0km/h | 998m | 0.0m/s | -46.0°C | 3.1% | 0hPa | 0V | 00:00:00 | 00:00:00 | 00:00:00 | |
| LY3OO-11 | 2026-08-31 12:50:55 | 54.69081 | 31.91639 | 0° | 0km/h | 998m | 0.0m/s | -45.6°C | 3.1% | 0hPa | 0V | 00:00:00 | 00:00:00 | 00:00:00 | |
| LY3OO-11 | 2026-08-31 12:50:35 | 54.69081 | 31.91639 | 0° | 0km/h | 998m | 0.0m/s | -45.7°C | 3.1% | 0hPa | 0V | 00:00:00 | 00:00:00 | 00:00:00 | |
| LY3OO-11 | 2026-08-31 12:50:14 | 54.69081 | 31.91639 | 0° | 0km/h | 998m | 0.0m/s | -46.4°C | 3.1% | 0hPa | 0V | 00:00:00 | 00:00:00 | 00:00:00 | |
| LY3OO-11 | 2026-08-31 12:49:53 | 54.69081 | 31.91639 | 0° | 0km/h | 998m | 0.0m/s | -47.1°C | 3.2% | 0hPa | 0V | 00:00:00 | 00:00:00 | 00:00:00 | |
| LY3OO-11 | 2026-08-31 12:49:32 | 54.69081 | 31.91639 | 0° | 0km/h | 998m | 0.0m/s | -47.7°C | 3.3% | 0hPa | 0V | 00:00:00 | 00:00:00 | 00:00:00 | |
| LY3OO-11 | 2026-08-31 12:49:12 | 54.69081 | 31.91639 | 0° | 0km/h | 998m | 0.0m/s | -48.1°C | 3.3% | 0hPa | 0V | 00:00:00 | 00:00:00 | 00:00:00 | |
| LY3OO-11 | 2026-08-31 12:48:51 | 54.69271 | 31.92334 | 241° | 97km/h | 977m | -0.4m/s | -48.2°C | 3.4% | 0hPa | 0V | 00:00:00 | 00:00:00 | 00:00:00 | |
| LY3OO-11 | 2026-08-31 12:48:30 | 54.69680 | 31.92895 | 202° | 99km/h | 983m | 0.8m/s | -48.5°C | 3.4% | 0hPa | 0V | 00:00:00 | 00:00:00 | 00:00:00 | |
| LY3OO-11 | 2026-08-31 12:48:10 | 54.70167 | 31.93000 | 173° | 93km/h | 970m | 0.4m/s | -48.2°C | 3.4% | 0hPa | 0V | 00:00:00 | 00:00:00 | 00:00:00 | |
| LY3OO-11 | 2026-08-31 12:47:49 | 54.70625 | 31.92592 | 138° | 95km/h | 943m | 0.4m/s | -48.6°C | 3.5% | 0hPa | 0V | 00:00:00 | 00:00:00 | 00:00:00 | |
| LY3OO-11 | 2026-08-31 12:47:29 | 54.70899 | 31.91890 | 105° | 99km/h | 996m | 2.1m/s | -48.9°C | 3.4% | 0hPa | 0V | 00:00:00 | 00:00:00 | 00:00:00 | |
| LY3OO-11 | 2026-08-31 12:47:08 | 54.70887 | 31.90990 | 74° | 100km/h | 992m | 0.7m/s | -49.1°C | 3.5% | 0hPa | 0V | 00:00:00 | 00:00:00 | 00:00:00 | |
| LY3OO-11 | 2026-08-31 12:46:48 | 54.70611 | 31.90260 | 41° | 104km/h | 977m | -0.8m/s | -49.4°C | 3.6% | 0hPa | 0V | 00:00:00 | 00:00:00 | 00:00:00 | |
| LY3OO-11 | 2026-08-31 12:46:27 | 54.70137 | 31.89923 | 7° | 102km/h | 950m | 2.6m/s | -49.8°C | 3.4% | 0hPa | 0V | 00:00:00 | 00:00:00 | 00:00:00 | |
| LY3OO-11 | 2026-08-31 12:46:06 | 54.69638 | 31.90043 | 338° | 100km/h | 950m | 0.5m/s | -50.7°C | 3.7% | 0hPa | 0V | 00:00:00 | 00:00:00 | 00:00:00 | |
| LY3OO-11 | 2026-08-31 12:45:47 | 54.69276 | 31.90596 | 306° | 102km/h | 985m | 2.4m/s | -51.1°C | 3.8% | 0hPa | 0V | 00:00:00 | 00:00:00 | 00:00:00 | |
| LY3OO-11 | 2026-08-31 12:45:26 | 54.69126 | 31.91446 | 273° | 102km/h | 974m | 0.3m/s | -50.8°C | 3.7% | 0hPa | 0V | 00:00:00 | 00:00:00 | 00:00:00 | |
| LY3OO-11 | 2026-08-31 12:45:05 | 54.69268 | 31.92326 | 236° | 100km/h | 988m | -2.8m/s | -50.9°C | 3.7% | 0hPa | 0V | 00:00:00 | 00:00:00 | 00:00:00 | |
| LY3OO-11 | 2026-08-31 12:44:44 | 54.69646 | 31.92862 | 206° | 95km/h | 970m | 3.3m/s | -51.4°C | 3.8% | 0hPa | 0V | 00:00:00 | 00:00:00 | 00:00:00 | |
| LY3OO-11 | 2026-08-31 12:44:25 | 54.70147 | 31.93011 | 174° | 100km/h | 978m | -1.4m/s | -51.1°C | 3.9% | 0hPa | 0V | 00:00:00 | 00:00:00 | 00:00:00 | |
| LY3OO-11 | 2026-08-31 12:44:04 | 54.70604 | 31.92647 | 140° | 99km/h | 979m | 0.8m/s | -51.1°C | 3.8% | 0hPa | 0V | 00:00:00 | 00:00:00 | 00:00:00 | |
| LY3OO-11 | 2026-08-31 12:43:44 | 54.70875 | 31.91939 | 109° | 99km/h | 980m | 0.8m/s | -51.1°C | 3.8% | 0hPa | 0V | 00:00:00 | 00:00:00 | 00:00:00 | |
| LY3OO-11 | 2026-08-31 12:43:23 | 54.70888 | 31.91085 | 77° | 99km/h | 982m | -1.6m/s | -51.7°C | 3.8% | 0hPa | 0V | 00:00:00 | 00:00:00 | 00:00:00 | |
| LY3OO-11 | 2026-08-31 12:43:04 | 54.70653 | 31.90353 | 40° | 100km/h | 987m | 1.1m/s | -51.7°C | 3.8% | 0hPa | 0V | 00:00:00 | 00:00:00 | 00:00:00 | |
| LY3OO-11 | 2026-08-31 12:42:43 | 54.70199 | 31.89927 | 11° | 99km/h | 988m | -0.0m/s | -51.7°C | 3.9% | 0hPa | 0V | 00:00:00 | 00:00:00 | 00:00:00 | |
| LY3OO-11 | 2026-08-31 12:42:01 | 54.69282 | 31.90602 | 304° | 102km/h | 985m | 1.0m/s | -52.0°C | 4.0% | 0hPa | 0V | 00:00:00 | 00:00:00 | 00:00:00 | |
| LY3OO-11 | 2026-08-31 12:41:40 | 54.69121 | 31.91464 | 272° | 99km/h | 969m | 1.9m/s | -52.0°C | 3.9% | 0hPa | 0V | 00:00:00 | 00:00:00 | 00:00:00 | |
| LY3OO-11 | 2026-08-31 12:41:19 | 54.69281 | 31.92306 | 238° | 99km/h | 962m | 0.3m/s | -52.4°C | 4.1% | 0hPa | 0V | 00:00:00 | 00:00:00 | 00:00:00 | |
| LY3OO-11 | 2026-08-31 12:40:59 | 54.69585 | 31.92968 | 201° | 100km/h | 931m | -0.1m/s | -51.9°C | 4.0% | 0hPa | 0V | 00:00:00 | 00:00:00 | 00:00:00 | |
| LY3OO-11 | 2026-08-31 12:40:39 | 54.70116 | 31.93019 | 174° | 99km/h | 961m | -0.4m/s | -51.9°C | 3.9% | 0hPa | 0V | 00:00:00 | 00:00:00 | 00:00:00 | |
| LY3OO-11 | 2026-08-31 12:40:18 | 54.70612 | 31.92648 | 140° | 99km/h | 970m | 1.6m/s | -51.2°C | 3.8% | 0hPa | 0V | 00:00:00 | 00:00:00 | 00:00:00 | |
| LY3OO-11 | 2026-08-31 12:39:58 | 54.70884 | 31.91943 | 109° | 100km/h | 973m | -0.8m/s | -51.3°C | 3.8% | 0hPa | 0V | 00:00:00 | 00:00:00 | 00:00:00 | |
| LY3OO-11 | 2026-08-31 12:39:38 | 54.70901 | 31.91091 | 76° | 100km/h | 975m | 1.0m/s | -51.8°C | 3.9% | 0hPa | 0V | 00:00:00 | 00:00:00 | 00:00:00 | |
| LY3OO-11 | 2026-08-31 12:39:17 | 54.70635 | 31.90321 | 43° | 99km/h | 963m | 0.5m/s | -52.0°C | 3.9% | 0hPa | 0V | 00:00:00 | 00:00:00 | 00:00:00 | |
| LY3OO-11 | 2026-08-31 12:38:56 | 54.70168 | 31.89955 | 12° | 100km/h | 943m | 1.8m/s | -52.3°C | 3.9% | 0hPa | 0V | 00:00:00 | 00:00:00 | 00:00:00 | |
| LY3OO-11 | 2026-08-31 12:38:37 | 54.69676 | 31.90034 | 340° | 99km/h | 931m | -0.2m/s | -51.9°C | 3.9% | 0hPa | 0V | 00:00:00 | 00:00:00 | 00:00:00 | |
| LY3OO-11 | 2026-08-31 12:38:15 | 54.69276 | 31.90573 | 308° | 104km/h | 940m | -0.3m/s | -52.2°C | 4.0% | 0hPa | 0V | 00:00:00 | 00:00:00 | 00:00:00 | |
| LY3OO-11 | 2026-08-31 12:37:55 | 54.69099 | 31.91394 | 276° | 97km/h | 942m | 1.6m/s | -52.3°C | 4.0% | 0hPa | 0V | 00:00:00 | 00:00:00 | 00:00:00 | |
| LY3OO-11 | 2026-08-31 12:37:34 | 54.69216 | 31.92264 | 237° | 102km/h | 948m | -0.0m/s | -51.9°C | 3.9% | 0hPa | 0V | 00:00:00 | 00:00:00 | 00:00:00 | |
| LY3OO-11 | 2026-08-31 12:37:13 | 54.69590 | 31.92880 | 207° | 97km/h | 946m | 1.9m/s | -51.7°C | 3.9% | 0hPa | 0V | 00:00:00 | 00:00:00 | 00:00:00 | |
| LY3OO-11 | 2026-08-31 12:36:52 | 54.70102 | 31.93040 | 175° | 100km/h | 948m | -1.9m/s | -51.7°C | 3.9% | 0hPa | 0V | 00:00:00 | 00:00:00 | 00:00:00 | |
| LY3OO-11 | 2026-08-31 12:36:31 | 54.70588 | 31.92694 | 140° | 97km/h | 971m | 0.8m/s | -52.4°C | 4.0% | 0hPa | 0V | 00:00:00 | 00:00:00 | 00:00:00 | |
| LY3OO-11 | 2026-08-31 12:36:11 | 54.70889 | 31.91958 | 101° | 104km/h | 987m | 4.6m/s | -52.7°C | 4.1% | 0hPa | 0V | 00:00:00 | 00:00:00 | 00:00:00 | |
| LY3OO-11 | 2026-08-31 12:35:49 | 54.70880 | 31.91007 | 73° | 102km/h | 953m | 1.4m/s | -52.6°C | 3.9% | 0hPa | 0V | 00:00:00 | 00:00:00 | 00:00:00 | |
| LY3OO-11 | 2026-08-31 12:35:28 | 54.70608 | 31.90270 | 41° | 99km/h | 953m | -0.1m/s | -52.9°C | 4.1% | 0hPa | 0V | 00:00:00 | 00:00:00 | 00:00:00 | |
| LY3OO-11 | 2026-08-31 12:35:08 | 54.70150 | 31.89929 | 9° | 102km/h | 952m | 3.5m/s | -52.7°C | 4.0% | 0hPa | 0V | 00:00:00 | 00:00:00 | 00:00:00 | |
| LY3OO-11 | 2026-08-31 12:34:47 | 54.69649 | 31.90063 | 335° | 99km/h | 972m | -0.0m/s | -53.1°C | 4.2% | 0hPa | 0V | 00:00:00 | 00:00:00 | 00:00:00 | |
| LY3OO-11 | 2026-08-31 12:34:27 | 54.69264 | 31.90629 | 304° | 99km/h | 958m | 0.8m/s | -52.9°C | 4.0% | 0hPa | 0V | 00:00:00 | 00:00:00 | 00:00:00 | |
| LY3OO-11 | 2026-08-31 12:34:07 | 54.69125 | 31.91450 | 271° | 100km/h | 964m | 0.6m/s | -53.7°C | 4.2% | 0hPa | 0V | 00:00:00 | 00:00:00 | 00:00:00 | |
| LY3OO-11 | 2026-08-31 12:33:46 | 54.69261 | 31.92301 | 237° | 95km/h | 969m | 1.2m/s | -53.9°C | 4.4% | 0hPa | 0V | 00:00:00 | 00:00:00 | 00:00:00 | |
| LY3OO-11 | 2026-08-31 12:33:25 | 54.69661 | 31.92880 | 206° | 95km/h | 966m | 2.4m/s | -53.8°C | 4.3% | 0hPa | 0V | 00:00:00 | 00:00:00 | 00:00:00 | |
| LY3OO-11 | 2026-08-31 12:33:04 | 54.70160 | 31.93003 | 172° | 99km/h | 930m | 0.6m/s | -53.6°C | 4.3% | 0hPa | 0V | 00:00:00 | 00:00:00 | 00:00:00 | |
| LY3OO-11 | 2026-08-31 12:32:44 | 54.70585 | 31.92643 | 139° | 99km/h | 866m | 0.8m/s | -53.0°C | 4.0% | 0hPa | 0V | 00:00:00 | 00:00:00 | 00:00:00 | |
| LY3OO-11 | 2026-08-31 12:32:23 | 54.70886 | 31.91879 | 106° | 99km/h | 967m | 0.4m/s | -53.5°C | 4.2% | 0hPa | 0V | 00:00:00 | 00:00:00 | 00:00:00 | |
| LY3OO-11 | 2026-08-31 12:32:02 | 54.70875 | 31.90982 | 72° | 99km/h | 964m | 0.4m/s | -53.4°C | 4.3% | 0hPa | 0V | 00:00:00 | 00:00:00 | 00:00:00 | |
| LY3OO-11 | 2026-08-31 12:31:41 | 54.70582 | 31.90248 | 39° | 99km/h | 960m | 0.1m/s | -53.3°C | 4.2% | 0hPa | 0V | 00:00:00 | 00:00:00 | 00:00:00 | |
| LY3OO-11 | 2026-08-31 12:31:21 | 54.70104 | 31.89911 | 6° | 99km/h | 965m | -0.2m/s | -53.2°C | 4.1% | 0hPa | 0V | 00:00:00 | 00:00:00 | 00:00:00 | |
| LY3OO-11 | 2026-08-31 12:30:58 | 54.69573 | 31.90121 | 331° | 99km/h | 969m | 0.2m/s | -52.8°C | 4.2% | 0hPa | 0V | 00:00:00 | 00:00:00 | 00:00:00 | |
| LY3OO-11 | 2026-08-31 12:30:35 | 54.69190 | 31.90851 | 295° | 99km/h | 957m | 0.9m/s | -52.5°C | 3.9% | 0hPa | 0V | 00:00:00 | 00:00:00 | 00:00:00 | |
| LY3OO-11 | 2026-08-31 12:30:11 | 54.69162 | 31.91904 | 255° | 100km/h | 972m | -0.1m/s | -53.1°C | 4.4% | 0hPa | 0V | 00:00:00 | 00:00:00 | 00:00:00 | |
| LY3OO-11 | 2026-08-31 12:26:05 | 41.48261 | -46.63991 | 0° | 0km/h | 9339m | 0.0m/s | -52.4°C | 4.4% | 0hPa | 0V | 00:00:00 | 00:00:00 | 00:00:00 | |
| LY3OO-11 | 2026-08-31 12:25:18 | 51.88884 | -38.69474 | 0° | 0km/h | 50m | 0.0m/s | -52.5°C | 4.3% | 0hPa | 0V | 00:00:00 | 00:00:00 | 00:00:00 | |
| LY3OO-11 | 2026-08-31 12:24:21 | 41.75696 | -47.13382 | 0° | 0km/h | 13m | 0.0m/s | -52.7°C | 4.3% | 0hPa | 0V | 00:00:00 | 00:00:00 | 00:00:00 | |
| LY3OO-11 | 2026-08-31 12:23:59 | 41.75696 | -47.13382 | 0° | 0km/h | 13m | 0.0m/s | -53.1°C | 4.6% | 0hPa | 0V | 00:00:00 | 00:00:00 | 00:00:00 | |
| LY3OO-11 | 2026-08-31 12:23:38 | 41.75696 | -47.13382 | 0° | 0km/h | 13m | 0.0m/s | -52.5°C | 4.4% | 0hPa | 0V | 00:00:00 | 00:00:00 | 00:00:00 | |
| LY3OO-11 | 2026-08-31 12:21:34 | 16.46054 | 102.31616 | 0° | 0km/h | 166m | 0.0m/s | -51.6°C | 4.1% | 0hPa | 0V | 00:00:00 | 00:00:00 | 00:00:00 | |
| LY3OO-11 | 2026-08-31 12:21:13 | 16.46054 | 102.31616 | 0° | 0km/h | 166m | 0.0m/s | -51.9°C | 4.3% | 0hPa | 0V | 00:00:00 | 00:00:00 | 00:00:00 | |
| LY3OO-11 | 2026-08-31 12:20:53 | 16.46054 | 102.31616 | 0° | 0km/h | 166m | 0.0m/s | -51.9°C | 4.3% | 0hPa | 0V | 00:00:00 | 00:00:00 | 00:00:00 | |
| LY3OO-11 | 2026-08-31 12:20:32 | 16.46054 | 102.31616 | 0° | 0km/h | 166m | 0.0m/s | -52.1°C | 4.3% | 0hPa | 0V | 00:00:00 | 00:00:00 | 00:00:00 | |
| LY3OO-11 | 2026-08-31 12:20:11 | 16.46054 | 102.31616 | 0° | 0km/h | 166m | 0.0m/s | -52.5°C | 4.4% | 0hPa | 0V | 00:00:00 | 00:00:00 | 00:00:00 | |
| LY3OO-11 | 2026-08-31 12:19:50 | 54.97638 | 24.46759 | 0° | 0km/h | 16613m | 0.0m/s | -51.9°C | 1.6% | 0hPa | 0V | 00:00:00 | 00:00:00 | 00:00:00 | |
| LY3OO-11 | 2026-08-31 12:19:30 | 54.97638 | 24.46759 | 0° | 0km/h | 16613m | 0.0m/s | -52.0°C | 1.6% | 0hPa | 0V | 00:00:00 | 00:00:00 | 00:00:00 | |
| LY3OO-11 | 2026-08-31 12:19:09 | 54.97638 | 24.46759 | 0° | 0km/h | 16613m | 0.0m/s | -51.3°C | 1.6% | 0hPa | 0V | 00:00:00 | 00:00:00 | 00:00:00 | |
| LY3OO-11 | 2026-08-31 12:18:49 | 54.97638 | 24.46759 | 0° | 0km/h | 16613m | 0.0m/s | -50.6°C | 1.5% | 0hPa | 0V | 00:00:00 | 00:00:00 | 00:00:00 | |
| LY3OO-11 | 2026-08-31 12:18:29 | 54.97638 | 24.46759 | 0° | 0km/h | 16613m | 0.0m/s | -50.9°C | 1.5% | 0hPa | 0V | 00:00:00 | 00:00:00 | 00:00:00 | |
| LY3OO-11 | 2026-08-31 12:18:08 | 54.97593 | 24.46599 | 70° | 35km/h | 16545m | 5.2m/s | -51.2°C | 1.6% | 0hPa | 0V | 00:00:00 | 00:00:00 | 00:00:00 | |
| LY3OO-11 | 2026-08-31 12:17:47 | 54.97501 | 24.46276 | 65° | 55km/h | 16435m | 6.7m/s | -52.1°C | 1.6% | 0hPa | 0V | 00:00:00 | 00:00:00 | 00:00:00 | |
| LY3OO-11 | 2026-08-31 12:17:26 | 54.97371 | 24.45888 | 53° | 40km/h | 16327m | 4.3m/s | -51.8°C | 1.6% | 0hPa | 0V | 00:00:00 | 00:00:00 | 00:00:00 | |
| LY3OO-11 | 2026-08-31 12:17:06 | 54.97245 | 24.45593 | 48° | 42km/h | 16224m | 5.7m/s | -51.2°C | 1.5% | 0hPa | 0V | 00:00:00 | 00:00:00 | 00:00:00 | |
| LY3OO-11 | 2026-08-31 12:16:45 | 54.97117 | 24.45290 | 63° | 40km/h | 16114m | 6.4m/s | -51.8°C | 1.6% | 0hPa | 0V | 00:00:00 | 00:00:00 | 00:00:00 | |
| LY3OO-11 | 2026-08-31 12:16:25 | 54.97006 | 24.44994 | 61° | 47km/h | 16011m | 6.2m/s | -52.7°C | 1.9% | 0hPa | 0V | 00:00:00 | 00:00:00 | 00:00:00 | |
| LY3OO-11 | 2026-08-31 12:16:04 | 54.96856 | 24.44670 | 48° | 38km/h | 15902m | 5.0m/s | -52.2°C | 1.7% | 0hPa | 0V | 00:00:00 | 00:00:00 | 00:00:00 | |
| LY3OO-11 | 2026-08-31 12:15:44 | 54.96749 | 24.44419 | 63° | 35km/h | 15802m | 4.7m/s | -51.8°C | 1.7% | 0hPa | 0V | 00:00:00 | 00:00:00 | 00:00:00 | |
| LY3OO-11 | 2026-08-31 12:15:24 | 54.96697 | 24.44162 | 85° | 29km/h | 15698m | 5.0m/s | -51.6°C | 1.6% | 0hPa | 0V | 00:00:00 | 00:00:00 | 00:00:00 | |
| LY3OO-11 | 2026-08-31 12:14:42 | 54.96675 | 24.43447 | 88° | 49km/h | 15492m | 4.2m/s | -51.3°C | 1.7% | 0hPa | 0V | 00:00:00 | 00:00:00 | 00:00:00 | |
| LY3OO-11 | 2026-08-31 12:14:21 | 54.96628 | 24.42945 | 77° | 60km/h | 15384m | 6.3m/s | -51.2°C | 1.7% | 0hPa | 0V | 00:00:00 | 00:00:00 | 00:00:00 | |
| LY3OO-11 | 2026-08-31 12:14:00 | 54.96521 | 24.42402 | 72° | 58km/h | 15280m | 6.0m/s | -50.9°C | 1.8% | 0hPa | 0V | 00:00:00 | 00:00:00 | 00:00:00 | |
| LY3OO-11 | 2026-08-31 12:13:39 | 54.96433 | 24.41886 | 75° | 55km/h | 15173m | 5.7m/s | -51.5°C | 1.9% | 0hPa | 0V | 00:00:00 | 00:00:00 | 00:00:00 | |
| LY3OO-11 | 2026-08-31 12:13:18 | 54.96308 | 24.41392 | 62° | 64km/h | 15061m | 2.7m/s | -51.2°C | 2.0% | 0hPa | 0V | 00:00:00 | 00:00:00 | 00:00:00 | |
| LY3OO-11 | 2026-08-31 12:12:58 | 54.96116 | 24.40884 | 55° | 66km/h | 14957m | 3.0m/s | -51.1°C | 2.0% | 0hPa | 0V | 00:00:00 | 00:00:00 | 00:00:00 | |
| LY3OO-11 | 2026-08-31 12:12:36 | 54.95925 | 24.40411 | 49° | 55km/h | 14852m | 6.5m/s | -51.0°C | 2.0% | 0hPa | 0V | 00:00:00 | 00:00:00 | 00:00:00 | |
| LY3OO-11 | 2026-08-31 12:12:15 | 54.95784 | 24.40069 | 58° | 46km/h | 14735m | 8.0m/s | -50.5°C | 2.0% | 0hPa | 0V | 00:00:00 | 00:00:00 | 00:00:00 | |
| LY3OO-11 | 2026-08-31 12:11:55 | 54.95711 | 24.39701 | 73° | 47km/h | 14616m | 6.7m/s | -50.6°C | 2.0% | 0hPa | 0V | 00:00:00 | 00:00:00 | 00:00:00 | |
| LY3OO-11 | 2026-08-31 12:11:35 | 54.95644 | 24.39344 | 81° | 38km/h | 14494m | 5.3m/s | -51.3°C | 1.9% | 0hPa | 0V | 00:00:00 | 00:00:00 | 00:00:00 | |
| LY3OO-11 | 2026-08-31 12:11:15 | 54.95600 | 24.38904 | 74° | 51km/h | 14380m | 6.9m/s | -52.1°C | 2.1% | 0hPa | 0V | 00:00:00 | 00:00:00 | 00:00:00 | |
| LY3OO-11 | 2026-08-31 12:10:54 | 54.95566 | 24.38446 | 91° | 60km/h | 14258m | 6.6m/s | -51.8°C | 2.1% | 0hPa | 0V | 00:00:00 | 00:00:00 | 00:00:00 | |
| LY3OO-11 | 2026-08-31 12:10:34 | 54.95556 | 24.38012 | 80° | 55km/h | 14133m | 6.8m/s | -52.2°C | 2.2% | 0hPa | 0V | 00:00:00 | 00:00:00 | 00:00:00 | |
| LY3OO-11 | 2026-08-31 12:10:13 | 54.95515 | 24.37462 | 83° | 62km/h | 14009m | 7.8m/s | -52.8°C | 2.4% | 0hPa | 0V | 00:00:00 | 00:00:00 | 00:00:00 | |
| LY3OO-11 | 2026-08-31 12:09:53 | 54.95482 | 24.36996 | 88° | 60km/h | 13889m | 7.0m/s | -52.3°C | 2.4% | 0hPa | 0V | 00:00:00 | 00:00:00 | 00:00:00 | |
| LY3OO-11 | 2026-08-31 12:09:32 | 54.95493 | 24.36447 | 90° | 53km/h | 13767m | 8.1m/s | -53.2°C | 2.5% | 0hPa | 0V | 00:00:00 | 00:00:00 | 00:00:00 | |
| LY3OO-11 | 2026-08-31 12:09:12 | 54.95472 | 24.35928 | 92° | 64km/h | 13652m | 6.2m/s | -52.8°C | 2.6% | 0hPa | 0V | 00:00:00 | 00:00:00 | 00:00:00 | |
| LY3OO-11 | 2026-08-31 12:08:51 | 54.95456 | 24.35336 | 85° | 64km/h | 13527m | 7.4m/s | -52.1°C | 2.6% | 0hPa | 0V | 00:00:00 | 00:00:00 | 00:00:00 | |
| LY3OO-11 | 2026-08-31 12:08:31 | 54.95419 | 24.34766 | 73° | 58km/h | 13403m | 5.9m/s | -52.3°C | 2.7% | 0hPa | 0V | 00:00:00 | 00:00:00 | 00:00:00 | |
| LY3OO-11 | 2026-08-31 12:08:11 | 54.95324 | 24.34077 | 72° | 82km/h | 13250m | 5.9m/s | -53.5°C | 3.1% | 0hPa | 0V | 00:00:00 | 00:00:00 | 00:00:00 | |
| LY3OO-11 | 2026-08-31 12:07:50 | 54.95173 | 24.33390 | 76° | 71km/h | 13112m | 7.7m/s | -53.7°C | 3.4% | 0hPa | 0V | 00:00:00 | 00:00:00 | 00:00:00 | |
| LY3OO-11 | 2026-08-31 12:07:30 | 54.95090 | 24.32840 | 67° | 66km/h | 12972m | 5.5m/s | -53.0°C | 3.5% | 0hPa | 0V | 00:00:00 | 00:00:00 | 00:00:00 | |
| LY3OO-11 | 2026-08-31 12:07:09 | 54.95019 | 24.32299 | 75° | 58km/h | 12835m | 3.8m/s | -51.9°C | 3.6% | 0hPa | 0V | 00:00:00 | 00:00:00 | 00:00:00 | |
| LY3OO-11 | 2026-08-31 12:06:49 | 54.94979 | 24.31684 | 83° | 64km/h | 12709m | 9.8m/s | -51.8°C | 3.8% | 0hPa | 0V | 00:00:00 | 00:00:00 | 00:00:00 | |
| LY3OO-11 | 2026-08-31 12:06:28 | 54.94888 | 24.31115 | 63° | 57km/h | 12575m | 5.4m/s | -51.8°C | 4.4% | 0hPa | 0V | 00:00:00 | 00:00:00 | 00:00:00 | |
| LY3OO-11 | 2026-08-31 12:06:07 | 54.94781 | 24.30560 | 82° | 64km/h | 12442m | 7.4m/s | -51.9°C | 4.6% | 0hPa | 0V | 00:00:00 | 00:00:00 | 00:00:00 | |
| LY3OO-11 | 2026-08-31 12:05:46 | 54.94707 | 24.29864 | 83° | 82km/h | 12306m | 5.5m/s | -52.7°C | 5.5% | 0hPa | 0V | 00:00:00 | 00:00:00 | 00:00:00 | |
| LY3OO-11 | 2026-08-31 12:05:25 | 54.94636 | 24.29171 | 78° | 69km/h | 12196m | 6.1m/s | -52.7°C | 6.6% | 0hPa | 0V | 00:00:00 | 00:00:00 | 00:00:00 | |
| LY3OO-11 | 2026-08-31 12:05:04 | 54.94554 | 24.28447 | 78° | 84km/h | 12095m | 4.0m/s | -53.7°C | 9.0% | 0hPa | 0V | 00:00:00 | 00:00:00 | 00:00:00 | |
| LY3OO-11 | 2026-08-31 12:04:44 | 54.94455 | 24.27783 | 84° | 68km/h | 11992m | 4.9m/s | -53.2°C | 12.6% | 0hPa | 0V | 00:00:00 | 00:00:00 | 00:00:00 | |
| LY3OO-11 | 2026-08-31 12:04:23 | 54.94372 | 24.27162 | 82° | 89km/h | 11852m | 5.3m/s | -56.8°C | 30.7% | 0hPa | 0V | 00:00:00 | 00:00:00 | 00:00:00 | |
| LY3OO-11 | 2026-08-31 12:04:02 | 54.94307 | 24.26474 | 76° | 71km/h | 11730m | 7.2m/s | -57.3°C | 39.5% | 0hPa | 0V | 00:00:00 | 00:00:00 | 00:00:00 | |
| LY3OO-11 | 2026-08-31 12:03:42 | 54.94210 | 24.25787 | 80° | 84km/h | 11628m | 4.0m/s | -58.5°C | 46.4% | 0hPa | 0V | 00:00:00 | 00:00:00 | 00:00:00 | |
| LY3OO-11 | 2026-08-31 12:03:21 | 54.94131 | 24.25083 | 87° | 78km/h | 11527m | 5.5m/s | -58.5°C | 49.8% | 0hPa | 0V | 00:00:00 | 00:00:00 | 00:00:00 | |
| LY3OO-11 | 2026-08-31 12:03:00 | 54.94103 | 24.24390 | 89° | 75km/h | 11426m | 4.1m/s | -58.5°C | 52.7% | 0hPa | 0V | 00:00:00 | 00:00:00 | 00:00:00 | |
| LY3OO-11 | 2026-08-31 12:02:40 | 54.94124 | 24.23789 | 92° | 64km/h | 11332m | 5.3m/s | -57.8°C | 58.3% | 0hPa | 0V | 00:00:00 | 00:00:00 | 00:00:00 | |
| LY3OO-11 | 2026-08-31 12:02:19 | 54.94152 | 24.23053 | 93° | 78km/h | 11215m | 5.8m/s | -56.9°C | 54.8% | 0hPa | 0V | 00:00:00 | 00:00:00 | 00:00:00 | |
| LY3OO-11 | 2026-08-31 12:01:59 | 54.94213 | 24.22267 | 89° | 93km/h | 11098m | 7.2m/s | -55.9°C | 49.6% | 0hPa | 0V | 00:00:00 | 00:00:00 | 00:00:00 | |
| LY3OO-11 | 2026-08-31 12:01:38 | 54.94299 | 24.21384 | 107° | 88km/h | 10987m | 3.3m/s | -54.8°C | 47.3% | 0hPa | 0V | 00:00:00 | 00:00:00 | 00:00:00 | |
| LY3OO-11 | 2026-08-31 12:01:17 | 54.94374 | 24.20477 | 104° | 113km/h | 10873m | 6.2m/s | -53.9°C | 46.0% | 0hPa | 0V | 00:00:00 | 00:00:00 | 00:00:00 | |
| LY3OO-11 | 2026-08-31 12:00:56 | 54.94407 | 24.19510 | 100° | 115km/h | 10740m | 5.8m/s | -53.1°C | 42.8% | 0hPa | 0V | 00:00:00 | 00:00:00 | 00:00:00 | |
| LY3OO-11 | 2026-08-31 12:00:35 | 54.94435 | 24.18431 | 89° | 111km/h | 10625m | 6.1m/s | -52.1°C | 45.2% | 0hPa | 0V | 00:00:00 | 00:00:00 | 00:00:00 | |
| LY3OO-11 | 2026-08-31 12:00:15 | 54.94463 | 24.17425 | 95° | 111km/h | 10519m | 5.2m/s | -51.3°C | 47.8% | 0hPa | 0V | 00:00:00 | 00:00:00 | 00:00:00 | |
| LY3OO-11 | 2026-08-31 11:59:55 | 54.94490 | 24.16414 | 92° | 115km/h | 10409m | 5.1m/s | -50.6°C | 52.6% | 0hPa | 0V | 00:00:00 | 00:00:00 | 00:00:00 | |
| LY3OO-11 | 2026-08-31 11:59:33 | 54.94519 | 24.15455 | 99° | 99km/h | 10288m | 3.8m/s | -49.5°C | 54.4% | 0hPa | 0V | 00:00:00 | 00:00:00 | 00:00:00 | |
| LY3OO-11 | 2026-08-31 11:59:12 | 54.94573 | 24.14561 | 98° | 93km/h | 10177m | 6.4m/s | -48.4°C | 51.7% | 0hPa | 0V | 00:00:00 | 00:00:00 | 00:00:00 | |
| LY3OO-11 | 2026-08-31 11:58:53 | 54.94605 | 24.13767 | 96° | 86km/h | 10071m | 5.3m/s | -47.5°C | 53.6% | 0hPa | 0V | 00:00:00 | 00:00:00 | 00:00:00 | |
| LY3OO-11 | 2026-08-31 11:58:33 | 54.94634 | 24.12979 | 92° | 80km/h | 9947m | 6.3m/s | -46.4°C | 50.9% | 0hPa | 0V | 00:00:00 | 00:00:00 | 00:00:00 | |
| LY3OO-11 | 2026-08-31 11:58:13 | 54.94673 | 24.12246 | 90° | 68km/h | 9833m | 4.7m/s | -45.3°C | 45.2% | 0hPa | 0V | 00:00:00 | 00:00:00 | 00:00:00 | |
| LY3OO-11 | 2026-08-31 11:57:52 | 54.94709 | 24.11521 | 101° | 68km/h | 9709m | 4.8m/s | -44.2°C | 40.0% | 0hPa | 0V | 00:00:00 | 00:00:00 | 00:00:00 | |
| LY3OO-11 | 2026-08-31 11:57:32 | 54.94752 | 24.10826 | 86° | 75km/h | 9592m | 6.0m/s | -43.2°C | 36.8% | 0hPa | 0V | 00:00:00 | 00:00:00 | 00:00:00 | |
| LY3OO-11 | 2026-08-31 11:57:12 | 54.94728 | 24.10158 | 86° | 73km/h | 9489m | 3.3m/s | -42.3°C | 36.3% | 0hPa | 0V | 00:00:00 | 00:00:00 | 00:00:00 | |
| LY3OO-11 | 2026-08-31 11:56:51 | 54.94711 | 24.09473 | 79° | 75km/h | 9367m | 4.8m/s | -41.1°C | 35.4% | 0hPa | 0V | 00:00:00 | 00:00:00 | 00:00:00 | |
| LY3OO-11 | 2026-08-31 11:56:31 | 54.94662 | 24.08778 | 93° | 71km/h | 9257m | 5.5m/s | -40.3°C | 39.2% | 0hPa | 0V | 00:00:00 | 00:00:00 | 00:00:00 | |
| LY3OO-11 | 2026-08-31 11:56:10 | 54.94590 | 24.08089 | 78° | 77km/h | 9138m | 7.0m/s | -39.4°C | 33.9% | 0hPa | 0V | 00:00:00 | 00:00:00 | 00:00:00 | |
| LY3OO-11 | 2026-08-31 11:55:50 | 54.94508 | 24.07512 | 64° | 66km/h | 9014m | 3.0m/s | -38.4°C | 34.7% | 0hPa | 0V | 00:00:00 | 00:00:00 | 00:00:00 | |
| LY3OO-11 | 2026-08-31 11:55:29 | 54.94431 | 24.06933 | 67° | 71km/h | 8911m | 8.0m/s | -37.5°C | 39.3% | 0hPa | 0V | 00:00:00 | 00:00:00 | 00:00:00 | |
| LY3OO-11 | 2026-08-31 11:55:09 | 54.94341 | 24.06386 | 66° | 47km/h | 8807m | 5.7m/s | -36.6°C | 33.8% | 0hPa | 0V | 00:00:00 | 00:00:00 | 00:00:00 | |
| LY3OO-11 | 2026-08-31 11:54:49 | 54.94249 | 24.05874 | 81° | 69km/h | 8698m | 4.2m/s | -35.6°C | 29.0% | 0hPa | 0V | 00:00:00 | 00:00:00 | 00:00:00 | |
| LY3OO-11 | 2026-08-31 11:54:28 | 54.94205 | 24.05376 | 68° | 66km/h | 8586m | 4.2m/s | -34.6°C | 25.6% | 0hPa | 0V | 00:00:00 | 00:00:00 | 00:00:00 | |
| LY3OO-11 | 2026-08-31 11:54:08 | 54.94134 | 24.04868 | 70° | 42km/h | 8469m | 5.0m/s | -33.7°C | 25.7% | 0hPa | 0V | 00:00:00 | 00:00:00 | 00:00:00 | |
| LY3OO-11 | 2026-08-31 11:53:48 | 54.94100 | 24.04440 | 81° | 53km/h | 8363m | 8.7m/s | -32.7°C | 23.2% | 0hPa | 0V | 00:00:00 | 00:00:00 | 00:00:00 | |
| LY3OO-11 | 2026-08-31 11:53:26 | 54.94093 | 24.03943 | 86° | 60km/h | 8241m | 3.5m/s | -31.8°C | 27.6% | 0hPa | 0V | 00:00:00 | 00:00:00 | 00:00:00 | |
| LY3OO-11 | 2026-08-31 11:53:07 | 54.94096 | 24.03512 | 85° | 58km/h | 8131m | 6.0m/s | -30.9°C | 27.4% | 0hPa | 0V | 00:00:00 | 00:00:00 | 00:00:00 | |
| LY3OO-11 | 2026-08-31 11:52:45 | 54.94090 | 24.03108 | 78° | 55km/h | 8016m | 7.4m/s | -29.8°C | 28.4% | 0hPa | 0V | 00:00:00 | 00:00:00 | 00:00:00 | |
| LY3OO-11 | 2026-08-31 11:52:25 | 54.94051 | 24.02697 | 80° | 60km/h | 7901m | 7.2m/s | -28.8°C | 35.4% | 0hPa | 0V | 00:00:00 | 00:00:00 | 00:00:00 | |
| LY3OO-11 | 2026-08-31 11:52:05 | 54.94033 | 24.02264 | 90° | 42km/h | 7776m | 5.8m/s | -28.4°C | 63.2% | 0hPa | 0V | 00:00:00 | 00:00:00 | 00:00:00 | |
| LY3OO-11 | 2026-08-31 11:51:44 | 54.93964 | 24.01833 | 84° | 46km/h | 7647m | 6.8m/s | -27.5°C | 68.0% | 0hPa | 0V | 00:00:00 | 00:00:00 | 00:00:00 | |
| LY3OO-11 | 2026-08-31 11:51:24 | 54.93903 | 24.01390 | 83° | 47km/h | 7513m | 9.4m/s | -26.7°C | 75.7% | 0hPa | 0V | 00:00:00 | 00:00:00 | 00:00:00 | |
| LY3OO-11 | 2026-08-31 11:51:04 | 54.93843 | 24.00873 | 78° | 62km/h | 7380m | 7.6m/s | -26.0°C | 75.8% | 0hPa | 0V | 00:00:00 | 00:00:00 | 00:00:00 | |
| LY3OO-11 | 2026-08-31 11:50:44 | 54.93747 | 24.00399 | 73° | 60km/h | 7250m | 6.3m/s | -25.0°C | 47.0% | 0hPa | 0V | 00:00:00 | 00:00:00 | 00:00:00 | |
| LY3OO-11 | 2026-08-31 11:50:24 | 54.93653 | 23.99916 | 73° | 53km/h | 7118m | 9.0m/s | -24.0°C | 55.0% | 0hPa | 0V | 00:00:00 | 00:00:00 | 00:00:00 | |
| LY3OO-11 | 2026-08-31 11:50:03 | 54.93554 | 23.99449 | 63° | 57km/h | 6971m | 8.4m/s | -23.0°C | 21.9% | 0hPa | 0V | 00:00:00 | 00:00:00 | 00:00:00 | |
| LY3OO-11 | 2026-08-31 11:49:42 | 54.93431 | 23.98977 | 66° | 60km/h | 6827m | 7.9m/s | -22.1°C | 15.1% | 0hPa | 0V | 00:00:00 | 00:00:00 | 00:00:00 | |
| LY3OO-11 | 2026-08-31 11:49:21 | 54.93297 | 23.98496 | 59° | 55km/h | 6678m | 7.8m/s | -21.0°C | 16.9% | 0hPa | 0V | 00:00:00 | 00:00:00 | 00:00:00 | |
| LY3OO-11 | 2026-08-31 11:49:00 | 54.93140 | 23.98072 | 58° | 51km/h | 6527m | 7.8m/s | -19.8°C | 15.1% | 0hPa | 0V | 00:00:00 | 00:00:00 | 00:00:00 | |
| LY3OO-11 | 2026-08-31 11:48:39 | 54.92982 | 23.97684 | 54° | 51km/h | 6382m | 8.5m/s | -18.5°C | 17.9% | 0hPa | 0V | 00:00:00 | 00:00:00 | 00:00:00 | |
| LY3OO-11 | 2026-08-31 11:48:18 | 54.92826 | 23.97325 | 53° | 46km/h | 6229m | 8.7m/s | -17.0°C | 14.8% | 0hPa | 0V | 00:00:00 | 00:00:00 | 00:00:00 | |
| LY3OO-11 | 2026-08-31 11:47:58 | 54.92673 | 23.96952 | 55° | 53km/h | 6079m | 8.8m/s | -15.6°C | 15.9% | 0hPa | 0V | 00:00:00 | 00:00:00 | 00:00:00 | |
| LY3OO-11 | 2026-08-31 11:47:36 | 54.92527 | 23.96559 | 55° | 49km/h | 5930m | 7.6m/s | -14.2°C | 15.7% | 0hPa | 0V | 00:00:00 | 00:00:00 | 00:00:00 | |
| LY3OO-11 | 2026-08-31 11:47:16 | 54.92388 | 23.96167 | 62° | 51km/h | 5777m | 8.2m/s | -12.9°C | 13.7% | 0hPa | 0V | 00:00:00 | 00:00:00 | 00:00:00 | |
| LY3OO-11 | 2026-08-31 11:46:55 | 54.92255 | 23.95796 | 59° | 53km/h | 5637m | 7.0m/s | -11.7°C | 12.2% | 0hPa | 0V | 00:00:00 | 00:00:00 | 00:00:00 | |
| LY3OO-11 | 2026-08-31 11:46:35 | 54.92128 | 23.95399 | 60° | 53km/h | 5495m | 7.1m/s | -10.6°C | 11.4% | 0hPa | 0V | 00:00:00 | 00:00:00 | 00:00:00 | |
| LY3OO-11 | 2026-08-31 11:46:14 | 54.92014 | 23.94998 | 73° | 46km/h | 5355m | 6.4m/s | -9.4°C | 8.6% | 0hPa | 0V | 00:00:00 | 00:00:00 | 00:00:00 | |
| LY3OO-11 | 2026-08-31 11:45:53 | 54.91920 | 23.94574 | 65° | 46km/h | 5236m | 6.2m/s | -8.5°C | 8.6% | 0hPa | 0V | 00:00:00 | 00:00:00 | 00:00:00 | |
| LY3OO-11 | 2026-08-31 11:45:32 | 54.91814 | 23.94139 | 68° | 55km/h | 5106m | 7.2m/s | -7.5°C | 8.4% | 0hPa | 0V | 00:00:00 | 00:00:00 | 00:00:00 | |
| LY3OO-11 | 2026-08-31 11:45:11 | 54.91715 | 23.93729 | 64° | 55km/h | 4986m | 6.3m/s | -6.7°C | 7.9% | 0hPa | 0V | 00:00:00 | 00:00:00 | 00:00:00 | |
| LY3OO-11 | 2026-08-31 11:44:52 | 54.91623 | 23.93327 | 71° | 53km/h | 4865m | 7.6m/s | -6.2°C | 6.6% | 0hPa | 0V | 00:00:00 | 00:00:00 | 00:00:00 | |
| LY3OO-11 | 2026-08-31 11:44:30 | 54.91503 | 23.92897 | 63° | 57km/h | 4738m | 6.6m/s | -5.9°C | 11.7% | 0hPa | 0V | 00:00:00 | 00:00:00 | 00:00:00 | |
| LY3OO-11 | 2026-08-31 11:44:09 | 54.91370 | 23.92465 | 58° | 49km/h | 4606m | 7.3m/s | -5.4°C | 18.0% | 0hPa | 0V | 00:00:00 | 00:00:00 | 00:00:00 | |
| LY3OO-11 | 2026-08-31 11:43:50 | 54.91227 | 23.92088 | 61° | 51km/h | 4467m | 7.6m/s | -4.4°C | 16.7% | 0hPa | 0V | 00:00:00 | 00:00:00 | 00:00:00 | |
| LY3OO-11 | 2026-08-31 11:43:27 | 54.91097 | 23.91726 | 49° | 37km/h | 4335m | 8.2m/s | -3.3°C | 15.7% | 0hPa | 0V | 00:00:00 | 00:00:00 | 00:00:00 | |
| LY3OO-11 | 2026-08-31 11:43:08 | 54.90954 | 23.91346 | 60° | 55km/h | 4210m | 5.9m/s | -2.2°C | 14.1% | 0hPa | 0V | 00:00:00 | 00:00:00 | 00:00:00 | |
| LY3OO-11 | 2026-08-31 11:42:46 | 54.90810 | 23.90955 | 55° | 46km/h | 4084m | 7.3m/s | -1.3°C | 9.8% | 0hPa | 0V | 00:00:00 | 00:00:00 | 00:00:00 | |
| LY3OO-11 | 2026-08-31 11:42:26 | 54.90673 | 23.90595 | 55° | 46km/h | 3950m | 7.0m/s | -0.6°C | 9.8% | 0hPa | 0V | 00:00:00 | 00:00:00 | 00:00:00 | |
| LY3OO-11 | 2026-08-31 11:42:05 | 54.90550 | 23.90219 | 57° | 44km/h | 3817m | 6.7m/s | -0.1°C | 8.9% | 0hPa | 0V | 00:00:00 | 00:00:00 | 00:00:00 | |
| LY3OO-11 | 2026-08-31 11:41:44 | 54.90432 | 23.89864 | 56° | 38km/h | 3685m | 6.5m/s | 0.4°C | 9.7% | 0hPa | 0V | 00:00:00 | 00:00:00 | 00:00:00 | |
| LY3OO-11 | 2026-08-31 11:41:23 | 54.90318 | 23.89548 | 58° | 51km/h | 3561m | 8.1m/s | 0.8°C | 12.9% | 0hPa | 0V | 00:00:00 | 00:00:00 | 00:00:00 | |
| LY3OO-11 | 2026-08-31 11:41:02 | 54.90198 | 23.89216 | 65° | 44km/h | 3427m | 7.6m/s | 1.7°C | 15.4% | 0hPa | 0V | 00:00:00 | 00:00:00 | 00:00:00 | |
| LY3OO-11 | 2026-08-31 11:40:42 | 54.90086 | 23.88882 | 59° | 42km/h | 3289m | 7.2m/s | 1.5°C | 15.5% | 0hPa | 0V | 00:00:00 | 00:00:00 | 00:00:00 | |
| LY3OO-11 | 2026-08-31 11:40:22 | 54.89977 | 23.88612 | 64° | 27km/h | 3152m | 6.9m/s | 1.3°C | 23.2% | 0hPa | 0V | 00:00:00 | 00:00:00 | 00:00:00 | |
| LY3OO-11 | 2026-08-31 11:40:01 | 54.89888 | 23.88432 | 36° | 24km/h | 3011m | 6.7m/s | 1.4°C | 40.9% | 0hPa | 0V | 00:00:00 | 00:00:00 | 00:00:00 | |
| LY3OO-11 | 2026-08-31 11:39:40 | 54.89782 | 23.88288 | 46° | 33km/h | 2893m | 5.8m/s | 2.1°C | 42.3% | 0hPa | 0V | 00:00:00 | 00:00:00 | 00:00:00 | |
| LY3OO-11 | 2026-08-31 11:39:09 | 54.89595 | 23.88018 | 43° | 35km/h | 2699m | 7.4m/s | 3.1°C | 69.5% | 0hPa | 0V | 00:00:00 | 00:00:00 | 00:00:00 | |
| LY3OO-11 | 2026-08-31 11:38:49 | 54.89414 | 23.87777 | 43° | 44km/h | 2573m | 4.8m/s | 4.0°C | 53.7% | 0hPa | 0V | 00:00:00 | 00:00:00 | 00:00:00 | |
| LY3OO-11 | 2026-08-31 11:38:25 | 54.89260 | 23.87517 | 53° | 35km/h | 2438m | 4.8m/s | 4.9°C | 62.6% | 0hPa | 0V | 00:00:00 | 00:00:00 | 00:00:00 | |
| LY3OO-11 | 2026-08-31 11:37:58 | 54.89121 | 23.87195 | 70° | 37km/h | 2295m | 6.6m/s | 5.8°C | 67.2% | 0hPa | 0V | 00:00:00 | 00:00:00 | 00:00:00 | |
| LY3OO-11 | 2026-08-31 11:37:37 | 54.89001 | 23.86951 | 60° | 33km/h | 2176m | 3.6m/s | 6.4°C | 75.2% | 0hPa | 0V | 00:00:00 | 00:00:00 | 00:00:00 | |
| LY3OO-11 | 2026-08-31 11:37:17 | 54.88897 | 23.86737 | 57° | 29km/h | 2059m | 6.4m/s | 7.2°C | 77.1% | 0hPa | 0V | 00:00:00 | 00:00:00 | 00:00:00 | |
| LY3OO-11 | 2026-08-31 11:36:57 | 54.88796 | 23.86537 | 54° | 38km/h | 1942m | 6.3m/s | 8.1°C | 78.2% | 0hPa | 0V | 00:00:00 | 00:00:00 | 00:00:00 | |
| LY3OO-11 | 2026-08-31 11:36:35 | 54.88695 | 23.86322 | 61° | 22km/h | 1817m | 7.3m/s | 9.3°C | 74.5% | 0hPa | 0V | 00:00:00 | 00:00:00 | 00:00:00 | |
| LY3OO-11 | 2026-08-31 11:36:15 | 54.88617 | 23.86138 | 54° | 27km/h | 1692m | 6.0m/s | 10.2°C | 75.8% | 0hPa | 0V | 00:00:00 | 00:00:00 | 00:00:00 | |
| LY3OO-11 | 2026-08-31 11:35:54 | 54.88528 | 23.85956 | 60° | 26km/h | 1561m | 6.5m/s | 10.5°C | 85.6% | 0hPa | 0V | 00:00:00 | 00:00:00 | 00:00:00 | |
| LY3OO-11 | 2026-08-31 11:35:33 | 54.88489 | 23.85721 | 68° | 33km/h | 1439m | 7.4m/s | 11.2°C | 90.8% | 0hPa | 0V | 00:00:00 | 00:00:00 | 00:00:00 | |
| LY3OO-11 | 2026-08-31 11:35:12 | 54.88448 | 23.85482 | 81° | 24km/h | 1314m | 4.8m/s | 12.2°C | 92.7% | 0hPa | 0V | 00:00:00 | 00:00:00 | 00:00:00 | |
| LY3OO-11 | 2026-08-31 11:34:52 | 54.88440 | 23.85302 | 87° | 26km/h | 1209m | 3.7m/s | 13.3°C | 0% | 0hPa | 0V | 00:00:00 | 00:00:00 | 00:00:00 | |
| LY3OO-11 | 2026-08-31 11:34:31 | 54.88430 | 23.85149 | 107° | 24km/h | 1121m | 4.9m/s | 14.1°C | 0% | 0hPa | 0V | 00:00:00 | 00:00:00 | 00:00:00 | |
| LY3OO-11 | 2026-08-31 11:34:10 | 54.88437 | 23.84975 | 88° | 18km/h | 1004m | 5.0m/s | 14.8°C | 0% | 0hPa | 0V | 00:00:00 | 00:00:00 | 00:00:00 | |
| LY3OO-11 | 2026-08-31 11:33:49 | 54.88428 | 23.84827 | 71° | 15km/h | 894m | 4.8m/s | 0°C | 0% | 0hPa | 0V | 00:00:00 | 00:00:00 | 00:00:00 | |
| LY3OO-11 | 2026-08-31 11:33:28 | 54.88419 | 23.84670 | 81° | 22km/h | 760m | 6.2m/s | 0°C | 0% | 0hPa | 0V | 00:00:00 | 00:00:00 | 00:00:00 |